User: anonymous   Login
Location: Zagreb
(45.8000°N, 16.0000°E)
Time: 08:06:03
(UTC+01:00)
Language:

Transit 2A Rocket - Orbit

View from above orbital plane
View from above orbital plane
View from above satellite
View from above satellite

Ground track
Ground track

The orbit data is extracted from the following two-line orbital elements,

1    47U 60007C   20299.94594142 -.00000042 +00000-0 +15784-4 0  9990
2    47 066.6650 166.0585 0231641 209.3976 149.3936 14.42106491153495
Epoch (UTC): 25 October 2020 22:42:09
Eccentricity: 0.0231641
inclination: 66.6650°
perigee height: 586 km
apogee height: 917 km
right ascension of ascending node: 166.0585°
argument of perigee: 209.3976°
revolutions per day: 14.42106491
mean anomaly at epoch: 149.3936°
orbit number at epoch: 15349

The dashed part of the orbit path shows where the satellite is in the earth's shadow,  

DLR